Location: Cave
(41.8160°N, 12.9350°E)
Time: 00:22:20
(UTC+02:00)

ISS - Pass Details

Date: 04 March 2019
Orbit: 411 x 421 km, 51.6° (Epoch: 15 October)

Event Time Altitude Azimuth Distance (km) Brightness Sun altitude
Exits shadow 05:14:32 16° 332° (NNW) 1,167 -1.7 -16.6°
Maximum altitude 05:15:17 17° 349° (N) 1,124 -1.7 -16.4°
Drops below altitude 10° 05:17:29 10° 32° (NNE) 1,461 -0.5 -16.0°
Sets 05:20:12 0° 54° (NE) 2,353 1.1 -15.5°
